• In Romania
  • List of Countries
  • For 7 days
  • Water Temperature
  • Satellite Maps
  • Weather Map
  • Weather Widgets
  • user-avatar
    Login

    Hourly Weather Kitzbuhel

    Today, 21 November, Tuesday

    Time Temperature Precipitation Wind Pressure Humidity
    00:00 +1°C° 0.4 mm 2 mps 676 mmHg 90%
    01:00 +2°C° 0 mm 2 mps 676 mmHg 89%
    02:00 +2°C° 0.5 mm 2 mps 676 mmHg 90%
    03:00 +2°C° 0.5 mm 2 mps 676 mmHg 91%
    04:00 +3°C° 0.5 mm 2 mps 676 mmHg 92%
    05:00 +3°C° 0.5 mm 2 mps 676 mmHg 92%
    06:00 +3°C° 0.5 mm 2 mps 676 mmHg 93%
    07:00 +3°C° 0.5 mm 2 mps 676 mmHg 93%
    08:00 +3°C° 0.5 mm 2 mps 676 mmHg 94%
    09:00 +4°C° 0.5 mm 2 mps 676 mmHg 94%
    10:00 +4°C° 0.5 mm 2 mps 676 mmHg 94%
    11:00 +5°C° 0.3 mm 2 mps 676 mmHg 94%
    12:00 +6°C° 0.3 mm 2 mps 676 mmHg 94%
    13:00 +6°C° 0.3 mm 2 mps 676 mmHg 94%
    14:00 +6°C° 0.5 mm 2 mps 676 mmHg 94%
    15:00 +6°C° 0.5 mm 2 mps 676 mmHg 94%
    16:00 +5°C° 0.5 mm 2 mps 676 mmHg 94%
    17:00 +5°C° 0.2 mm 2 mps 676 mmHg 94%
    18:00 +5°C° 0.2 mm 2 mps 676 mmHg 93%
    19:00 +5°C° 0.2 mm 2 mps 676 mmHg 92%
    20:00 +4°C° 0 mm 2 mps 676 mmHg 91%
    21:00 +3°C° 0 mm 2 mps 676 mmHg 90%
    22:00 +3°C° 0 mm 2 mps 676 mmHg 89%
    23:00 +3°C° 0 mm 2 mps 676 mmHg 88%

    Tomorrow, 22 November, Wednesday

    Time Temperature Precipitation Wind Pressure Humidity
    00:00 +3°C° 0 mm 2 mps 676 mmHg 86%
    01:00 +2°C° 0 mm 2 mps 676 mmHg 85%
    02:00 +2°C° 0 mm 2 mps 676 mmHg 84%
    03:00 +2°C° 0 mm 2 mps 676 mmHg 83%
    04:00 +2°C° 0 mm 2 mps 676 mmHg 82%
    05:00 +2°C° 0 mm 2 mps 676 mmHg 80%
    06:00 +2°C° 0 mm 2 mps 676 mmHg 79%
    07:00 +2°C° 0 mm 2 mps 676 mmHg 78%
    08:00 +3°C° 0 mm 2 mps 676 mmHg 79%
    09:00 +5°C° 0 mm 2 mps 676 mmHg 80%
    10:00 +7°C° 0 mm 1 mps 676 mmHg 81%
    11:00 +8°C° 0 mm 1 mps 676 mmHg 83%
    12:00 +9°C° 0 mm 1 mps 676 mmHg 86%
    13:00 +10°C° 0 mm 1 mps 676 mmHg 88%
    14:00 +9°C° 0 mm 1 mps 676 mmHg 86%
    15:00 +8°C° 0 mm 1 mps 675 mmHg 84%
    16:00 +6°C° 0 mm 1 mps 675 mmHg 83%
    17:00 +5°C° 0 mm 1 mps 675 mmHg 81%
    18:00 +3°C° 0 mm 2 mps 675 mmHg 80%
    19:00 +2°C° 0 mm 2 mps 675 mmHg 78%
    20:00 +2°C° 0 mm 2 mps 675 mmHg 77%
    21:00 +2°C° 0 mm 2 mps 675 mmHg 76%
    22:00 +2°C° 0 mm 2 mps 675 mmHg 75%
    23:00 +2°C° 0 mm 2 mps 675 mmHg 76%

    Day after tomorrow, 23 November, Thursday

    Time Temperature Precipitation Wind Pressure Humidity
    00:00 +2°C° 0 mm 2 mps 675 mmHg 76%
    01:00 +2°C° 0 mm 2 mps 675 mmHg 76%
    02:00 +2°C° 0 mm 2 mps 675 mmHg 76%
    03:00 +2°C° 0 mm 2 mps 675 mmHg 77%
    04:00 +2°C° 0 mm 2 mps 675 mmHg 77%
    05:00 +1°C° 0 mm 2 mps 675 mmHg 77%
    06:00 +1°C° 0 mm 2 mps 675 mmHg 77%
    07:00 +1°C° 0 mm 2 mps 675 mmHg 77%
    08:00 +3°C° 0 mm 2 mps 676 mmHg 78%
    09:00 +5°C° 0 mm 1 mps 676 mmHg 78%
    10:00 +7°C° 0 mm 1 mps 677 mmHg 78%
    11:00 +8°C° 0 mm 1 mps 677 mmHg 80%
    12:00 +9°C° 0 mm 1 mps 677 mmHg 82%
    13:00 +10°C° 0 mm 1 mps 677 mmHg 84%
    14:00 +9°C° 0 mm 1 mps 677 mmHg 81%
    15:00 +8°C° 0 mm 1 mps 677 mmHg 77%
    16:00 +7°C° 0 mm 1 mps 677 mmHg 73%
    17:00 +6°C° 0 mm 1 mps 677 mmHg 72%
    18:00 +4°C° 0 mm 2 mps 678 mmHg 70%
    19:00 +3°C° 0 mm 2 mps 678 mmHg 68%
    20:00 +3°C° 0 mm 2 mps 678 mmHg 68%
    21:00 +3°C° 0 mm 2 mps 679 mmHg 68%
    22:00 +3°C° 0 mm 2 mps 679 mmHg 68%
    23:00 +3°C° 0 mm 2 mps 679 mmHg 69%

    24 November, Friday

    Time Temperature Precipitation Wind Pressure Humidity
    00:00 +2°C° 0 mm 2 mps 679 mmHg 69%
    01:00 +2°C° 0 mm 2 mps 679 mmHg 70%
    02:00 +2°C° 0 mm 2 mps 679 mmHg 69%
    03:00 +2°C° 0 mm 2 mps 679 mmHg 69%
    04:00 +2°C° 0 mm 2 mps 678 mmHg 69%
    05:00 +2°C° 0 mm 2 mps 679 mmHg 69%
    06:00 +2°C° 0 mm 2 mps 679 mmHg 69%
    07:00 +2°C° 0 mm 2 mps 679 mmHg 69%
    08:00 +3°C° 0 mm 2 mps 679 mmHg 70%
    09:00 +5°C° 0 mm 2 mps 679 mmHg 70%
    10:00 +6°C° 0 mm 2 mps 679 mmHg 71%
    11:00 +7°C° 0 mm 2 mps 679 mmHg 73%
    12:00 +8°C° 0 mm 2 mps 678 mmHg 74%
    13:00 +9°C° 0 mm 2 mps 678 mmHg 76%
    14:00 +8°C° 0 mm 2 mps 678 mmHg 77%
    15:00 +7°C° 0 mm 2 mps 678 mmHg 78%
    16:00 +5°C° 0 mm 2 mps 678 mmHg 79%
    17:00 +4°C° 0 mm 2 mps 678 mmHg 78%
    18:00 +4°C° 0 mm 2 mps 678 mmHg 76%
    19:00 +3°C° 0 mm 2 mps 678 mmHg 74%
    20:00 +3°C° 0 mm 2 mps 678 mmHg 72%
    21:00 +2°C° 0 mm 2 mps 678 mmHg 70%
    22:00 +2°C° 0 mm 2 mps 678 mmHg 69%
    23:00 +2°C° 0 mm 2 mps 678 mmHg 68%

    25 November, Saturday

    Time Temperature Precipitation Wind Pressure Humidity
    00:00 +3°C° 0 mm 2 mps 678 mmHg 68%
    01:00 +3°C° 0 mm 2 mps 678 mmHg 67%
    02:00 +3°C° 0 mm 2 mps 678 mmHg 67%
    03:00 +3°C° 0 mm 2 mps 678 mmHg 68%
    04:00 +3°C° 0 mm 2 mps 677 mmHg 68%
    05:00 +3°C° 0 mm 2 mps 677 mmHg 69%
    06:00 +3°C° 0 mm 2 mps 677 mmHg 70%
    07:00 +3°C° 0 mm 2 mps 677 mmHg 71%
    08:00 +4°C° 0 mm 2 mps 677 mmHg 72%
    09:00 +5°C° 0 mm 2 mps 677 mmHg 72%
    10:00 +6°C° 0 mm 2 mps 677 mmHg 73%
    11:00 +7°C° 0 mm 2 mps 676 mmHg 75%
    12:00 +8°C° 0 mm 2 mps 676 mmHg 76%
    13:00 +9°C° 0 mm 2 mps 675 mmHg 78%
    14:00 +8°C° 0 mm 2 mps 675 mmHg 81%
    15:00 +7°C° 0 mm 2 mps 675 mmHg 84%
    16:00 +6°C° 0 mm 2 mps 674 mmHg 87%
    17:00 +5°C° 0 mm 2 mps 675 mmHg 88%
    18:00 +5°C° 0 mm 2 mps 675 mmHg 89%
    19:00 +4°C° 0 mm 2 mps 676 mmHg 90%
    20:00 +4°C° 0.2 mm 2 mps 677 mmHg 91%
    21:00 +4°C° 0.2 mm 2 mps 677 mmHg 92%
    22:00 +5°C° 0.2 mm 1 mps 678 mmHg 92%
    23:00 +4°C° 0.6 mm 2 mps 678 mmHg 93%

    26 November, Sunday

    Time Temperature Precipitation Wind Pressure Humidity
    00:00 +3°C° 0.6 mm 2 mps 679 mmHg 94%
    01:00 +3°C° 0.6 mm 2 mps 679 mmHg 94%
    02:00 +3°C° 0.5 mm 2 mps 679 mmHg 95%
    03:00 +3°C° 0.5 mm 1 mps 679 mmHg 95%
    04:00 +3°C° 0.5 mm 1 mps 679 mmHg 95%
    05:00 +3°C° 0.6 mm 1 mps 679 mmHg 95%
    06:00 +3°C° 0.6 mm 1 mps 680 mmHg 95%
    07:00 +3°C° 0.6 mm 1 mps 680 mmHg 94%
    08:00 +2°C° 0.6 mm 2 mps 680 mmHg 93%
    09:00 +2°C° 0.6 mm 2 mps 681 mmHg 92%
    10:00 +2°C° 0.6 mm 2 mps 681 mmHg 91%
    11:00 +1°C° 0.4 mm 2 mps 681 mmHg 90%
    12:00 +1°C° 0.4 mm 2 mps 681 mmHg 89%
    13:00 +1°C° 0.4 mm 2 mps 681 mmHg 88%
    14:00 +1°C° 0.5 mm 2 mps 681 mmHg 88%
    15:00 -1°C° 0.5 mm 2 mps 682 mmHg 89%
    16:00 -2°C° 0.5 mm 2 mps 682 mmHg 90%
    17:00 -3°C° 0 mm 2 mps 682 mmHg 90%
    18:00 -3°C° 0 mm 2 mps 683 mmHg 91%
    19:00 -4°C° 0 mm 2 mps 683 mmHg 91%
    20:00 -3°C° 0 mm 1 mps 683 mmHg 91%
    21:00 -3°C° 0 mm 1 mps 684 mmHg 91%
    22:00 -4°C° 0 mm 1 mps 684 mmHg 90%
    23:00 -4°C° 0 mm 1 mps 684 mmHg 88%
    Show more